FW3855 Weather Reports


Display with metric or nautical units.
time (UTC)temp
F
wind
direction
speed
MPH
gust
MPH
rain 1hr
in
rain 24hr
in
rain mn
in
humidity
%
barometer
mb
20260504181128 61 283 8.0 21.0 0.00 0.00 0.00 40 1013.4
20260504180627 61 174 7.0 26.0 0.00 0.00 0.00 40 1013.6
20260504180127 60 189 7.0 26.0 0.00 0.00 0.00 41 1013.3
20260504175628 60 137 8.0 25.0 0.00 0.00 0.00 41 1013.5
20260504175125 60 201 10.0 21.0 0.00 0.00 0.00 42 1013.3
20260504174625 60 172 10.0 34.0 0.00 0.00 0.00 43 1013.5
20260504174124 60 122 8.0 34.0 0.00 0.00 0.00 43 1013.3
20260504173624 60 185 8.0 18.0 0.00 0.00 0.00 42 1013.2
20260504173126 60 162 7.0 18.0 0.00 0.00 0.00 42 1013.3
20260504172624 60 164 7.0 16.0 0.00 0.00 0.00 42 1013.3
20260504172124 60 220 8.0 18.0 0.00 0.00 0.00 43 1013.0
20260504171625 59 170 8.0 18.0 0.00 0.00 0.00 43 1013.3
20260504171124 60 150 7.0 23.0 0.00 0.00 0.00 43 1012.9
20260504170624 60 234 8.0 23.0 0.00 0.00 0.00 42 1012.9
20260504170125 60 170 7.0 22.0 0.00 0.00 0.00 42 1013.2
20260504160127 59 134 5.0 18.0 0.00 0.00 0.00 46 1013.0
20260504150616 58 79 5.0 17.0 0.00 0.00 0.00 44 1013.2
20260504150109 58 153 5.0 17.0 0.00 0.00 0.00 44 1013.2
20260504141104 58 184 4.0 12.0 0.00 0.00 0.00 42 1012.7
20260504140606 57 175 4.0 15.0 0.00 0.00 0.00 41 1012.8
20260504140105 57 139 3.0 15.0 0.00 0.00 0.00 41 1012.6
20260504081935 63 183 2.0 9.0 0.00 0.00 0.00 29 1011.6
20260504081429 63 197 2.0 7.0 0.00 0.00 0.00 29 1011.6
20260504080419 63 195 2.0 8.0 0.00 0.00 0.00 28 1012.1
20260504070406 65 193 2.0 7.0 0.00 0.00 0.00 24 1011.9
20260504050357 69 207 7.0 14.0 0.00 0.00 0.00 18 1011.9
20260504045855 69 188 7.0 14.0 0.00 0.00 0.00 18 1011.9
20260504045414 69 160 6.0 14.0 0.00 0.00 0.00 18 1012.0
20260504044859 69 277 6.0 11.0 0.00 0.00 0.00 18 1011.8
20260504044359 69 127 5.0 14.0 0.00 0.00 0.00 18 1011.9
20260504043859 69 226 5.0 14.0 0.00 0.00 0.00 18 1012.0
20260504043348 69 143 5.0 13.0 0.00 0.00 0.00 18 1011.9
20260504042847 70 162 6.0 20.0 0.00 0.00 0.00 18 1012.1
20260504042346 70 166 6.0 20.0 0.00 0.00 0.00 18 1012.0
20260504041336 70 229 4.0 12.0 0.00 0.00 0.00 18 1011.8
20260504040833 70 177 4.0 12.0 0.00 0.00 0.00 18 1011.7
20260504035837 70 177 5.0 12.0 0.00 0.00 0.00 18 1011.6
20260504035337 70 129 5.0 12.0 0.00 0.00 0.00 18 1011.6
20260504034831 70 292 5.0 15.0 0.00 0.00 0.00 17 1011.5
20260504033829 71 160 3.0 11.0 0.00 0.00 0.00 17 1011.3
20260504033327 71 197 4.0 8.0 0.00 0.00 0.00 17 1011.1
20260504032332 71 218 4.0 10.0 0.00 0.00 0.00 17 1011.1
20260504031829 71 193 5.0 13.0 0.00 0.00 0.00 17 1011.1
20260504031328 71 256 5.0 17.0 0.00 0.00 0.00 17 1011.1
20260504030828 71 194 6.0 17.0 0.00 0.00 0.00 16 1011.0
20260504030328 71 158 7.0 17.0 0.00 0.00 0.00 16 1010.9
20260504025829 71 174 8.0 21.0 0.00 0.00 0.00 16 1010.9
20260504024822 71 172 5.0 14.0 0.00 0.00 0.00 14 1010.9
20260504024316 71 202 4.0 14.0 0.00 0.00 0.00 14 1010.9
20260504023810 71 156 3.0 10.0 0.00 0.00 0.00 14 1010.8
20260504023304 72 251 4.0 11.0 0.00 0.00 0.00 14 1010.8
20260504022252 73 221 7.0 17.0 0.00 0.00 0.00 13 1010.7
20260504021747 73 300 6.0 14.0 0.00 0.00 0.00 12 1010.7
20260504021240 73 226 5.0 14.0 0.00 0.00 0.00 12 1010.5
20260504020735 74 243 5.0 15.0 0.00 0.00 0.00 12 1010.5
20260504020229 74 161 7.0 16.0 0.00 0.00 0.00 11 1010.5
20260504015722 74 174 7.0 16.0 0.00 0.00 0.00 11 1010.5
20260504014205 77 170 6.0 19.0 0.00 0.00 0.00 9 1010.5
20260504013152 78 154 5.0 16.0 0.00 0.00 0.00 8 1010.5
20260504012647 78 228 5.0 11.0 0.00 0.00 0.00 8 1010.5
20260504012141 78 176 5.0 12.0 0.00 0.00 0.00 8 1010.5
20260504011634 78 210 7.0 13.0 0.00 0.00 0.00 7 1010.7
20260504011129 78 147 7.0 14.0 0.00 0.00 0.00 7 1010.5
20260504010622 79 118 6.0 15.0 0.00 0.00 0.00 7 1010.5
20260504010116 79 130 4.0 15.0 0.00 0.00 0.00 6 1010.5
20260504005611 80 56 5.0 18.0 0.00 0.00 0.00 6 1010.5
20260504005104 80 248 6.0 18.0 0.00 0.00 0.00 5 1010.3
20260504004558 80 212 6.0 21.0 0.00 0.00 0.00 5 1010.5
20260504004053 80 179 8.0 21.0 0.00 0.00 0.00 5 1010.5
20260504003546 79 193 7.0 18.0 0.00 0.00 0.00 5 1010.5
20260504003044 79 191 6.0 19.0 0.00 0.00 0.00 5 1010.5
20260504002535 79 134 6.0 19.0 0.00 0.00 0.00 5 1010.5
20260504002028 78 188 6.0 15.0 0.00 0.00 0.00 5 1010.5
20260504001523 78 239 6.0 13.0 0.00 0.00 0.00 5 1010.8
20260504001016 77 208 5.0 18.0 0.00 0.00 0.00 6 1010.5
20260504000510 77 218 5.0 15.0 0.00 0.00 0.00 5 1010.5
20260503235459 77 182 5.0 18.0 0.00 0.00 0.00 5 1010.7
20260503234953 77 216 4.0 18.0 0.00 0.00 0.00 5 1010.5
20260503234447 76 201 6.0 18.0 0.00 0.00 0.00 5 1010.8
20260503233943 77 193 6.0 15.0 0.00 0.00 0.00 4 1010.5
20260503233441 77 218 7.0 15.0 0.00 0.00 0.00 4 1010.8
20260503231941 80 158 9.0 20.0 0.00 0.00 0.00 4 1010.7
20260503231441 79 193 9.0 24.0 0.00 0.00 0.00 4 1010.7
20260503230944 80 244 9.0 24.0 0.00 0.00 0.00 4 1010.8
20260503230442 80 53 10.0 19.0 0.00 0.00 0.00 4 1010.9
20260503225941 80 129 8.0 19.0 0.00 0.00 0.00 4 1011.0
20260503225443 80 183 7.0 21.0 0.00 0.00 0.00 3 1010.9
20260503224939 80 168 8.0 21.0 0.00 0.00 0.00 4 1010.8
20260503224440 80 137 8.0 19.0 0.00 0.00 0.00 4 1010.9
20260503223938 80 229 8.0 19.0 0.00 0.00 0.00 4 1011.0
20260503223437 80 143 7.0 18.0 0.00 0.00 0.00 4 1011.0
20260503222938 80 199 8.0 21.0 0.00 0.00 0.00 4 1011.0
20260503222439 80 293 8.0 21.0 0.00 0.00 0.00 5 1011.1
20260503221935 81 140 6.0 19.0 0.00 0.00 0.00 7 1010.9
20260503221434 80 266 7.0 19.0 0.00 0.00 0.00 8 1011.2
20260503220929 80 204 6.0 18.0 0.00 0.00 0.00 8 1011.1
20260503215917 80 208 8.0 20.0 0.00 0.00 0.00 10 1011.3
20260503215410 81 291 9.0 18.0 0.00 0.00 0.00 9 1011.5
20260503214905 80 214 10.0 20.0 0.00 0.00 0.00 10 1011.6
20260503214404 80 46 7.0 20.0 0.00 0.00 0.00 10 1011.6
20260503213854 81 89 5.0 15.0 0.00 0.00 0.00 10 1011.7
20260503213349 80 265 6.0 18.0 0.00 0.00 0.00 10 1011.7
20260503212840 80 230 6.0 18.0 0.00 0.00 0.00 10 1011.8
20260503212335 81 257 6.0 17.0 0.00 0.00 0.00 10 1011.8
20260503211837 81 217 7.0 22.0 0.00 0.00 0.00 10 1011.9
20260503211331 80 247 8.0 22.0 0.00 0.00 0.00 11 1011.9
20260503210831 81 146 7.0 16.0 0.00 0.00 0.00 9 1012.3
20260503210331 80 161 8.0 20.0 0.00 0.00 0.00 9 1012.4
20260503205830 80 169 8.0 20.0 0.00 0.00 0.00 10 1012.3
20260503205327 80 179 6.0 20.0 0.00 0.00 0.00 10 1012.3
20260503204829 80 224 6.0 25.0 0.00 0.00 0.00 10 1012.6
20260503204328 79 118 7.0 25.0 0.00 0.00 0.00 10 1012.8
20260503202827 80 96 8.0 21.0 0.00 0.00 0.00 10 1012.8
20260503202327 80 92 7.0 21.0 0.00 0.00 0.00 11 1013.0
20260503201827 80 190 8.0 20.0 0.00 0.00 0.00 10 1013.2
20260503201334 80 158 7.0 27.0 0.00 0.00 0.00 11 1013.0
20260503200831 80 251 6.0 27.0 0.00 0.00 0.00 10 1013.2
20260503200329 80 168 4.0 15.0 0.00 0.00 0.00 12 1013.2
20260503195830 79 146 5.0 19.0 0.00 0.00 0.00 13 1013.4
20260503195327 78 49 7.0 23.0 0.00 0.00 0.00 13 1013.4
20260503194827 78 265 7.0 23.0 0.00 0.00 0.00 13 1013.4
20260503194329 80 175 7.0 17.0 0.00 0.00 0.00 12 1013.6
20260503193327 80 258 8.0 24.0 0.00 0.00 0.00 11 1013.7
20260503192327 80 203 5.0 14.0 0.00 0.00 0.00 13 1013.7
20260503191829 80 91 5.0 21.0 0.00 0.00 0.00 12 1013.8
20260503191326 79 163 7.0 21.0 0.00 0.00 0.00 12 1014.1
20260503190826 79 180 6.0 16.0 0.00 0.00 0.00 11 1014.1
20260503190327 80 173 6.0 18.0 0.00 0.00 0.00 11 1014.2
20260503185326 79 240 4.0 16.0 0.00 0.00 0.00 12 1014.2
20260503184829 80 202 5.0 13.0 0.00 0.00 0.00 12 1014.2
20260503184327 80 261 5.0 19.0 0.00 0.00 0.00 11 1014.4
20260503183827 79 142 5.0 19.0 0.00 0.00 0.00 11 1014.4
20260503183329 78 113 6.0 23.0 0.00 0.00 0.00 13 1014.5
20260503182827 78 56 7.0 23.0 0.00 0.00 0.00 13 1014.5
20260503182328 78 72 5.0 19.0 0.00 0.00 0.00 13 1014.5
20260503181826 78 182 5.0 11.0 0.00 0.00 0.00 12 1014.4